{"data":{"norad_id":58922,"intl_designator":"2024-024F","name":"2024-024F","alt_names":[],"object_type":"PAYLOAD","status":"ACTIVE","operator":null,"country":"PRC","launch_date":"2024-02-03","launch_site_code":"SCSLA","launch_vehicle":null,"mission":null,"orbit_class":"UNKNOWN","rcs_meters":null,"size_class":null,"mass_kg":null,"dimensions":null,"purposes":[],"wikipedia_slug":null,"has_3d_model":false,"image_url":null,"decayed_at":null,"tle_current":{"epoch":"2026-05-25T04:30:14.731200Z","epoch_age_seconds":58843,"freshness":"FRESH","line1":"1 58922U 24024F   26145.18767050  .00010040  00000+0  44601-3 0  9992","line2":"2 58922  97.3041 210.4268 0014288 120.4446 239.8204 15.21635418127766","mean_motion":15.21635418,"eccentricity":0.0014288,"inclination_deg":97.3041,"raan_deg":210.4268,"arg_perigee_deg":120.4446,"mean_anomaly_deg":239.8204,"bstar":0.00044601,"rev_number":12776,"period_min":94.635021172989,"perigee_km":491.078459747,"apogee_km":510.73601656195,"semimajor_km":6879.0442381545,"source":"CELESTRAK","updated_at":"2026-05-25T13:38:01.079361Z"}}}